Location: Hains Lake
(37.8540°N, 99.8578°W)
Time: 22:11:42
(UTC+00:00)

Vanguard 2 Rocket - Pass Details

Date: 19 April 2021
Orbit: 553 x 3326 km, 32.9° (Epoch: 05 May)

Event Time Altitude Azimuth Distance (km) Brightness Sun altitude
Rises 19:32:45 0° 232° (SW) 6,220 11.5 60.9°
Reaches altitude 10° 19:36:30 10° 229° (SW) 5,494 11.5 60.6°
Maximum altitude 19:54:02 59° 155° (SSE) 3,645 11.2 58.7°
Drops below altitude 10° 20:13:05 10° 83° (E) 5,927 10.9 56.2°
Sets 20:17:17 0° 80° (E) 6,717 11.0 55.6°
